Location: Kam�li
(14.6864°N, 3.1482°W)
Time: 23:29:03
(UTC+00:00)

AQUARIUS - Pass Details

Date: 29 October 2020
Orbit: 650 x 653 km, 98.0° (Epoch: 03 December)

Event Time Altitude Azimuth Distance (km) Brightness Sun altitude
Rises 17:59:54 0° 167° (SSE) 2,961 7.6 -4.3°
Reaches altitude 10° 18:02:06 10° 166° (SSE) 2,051 6.7 -4.8°
Maximum altitude 18:06:35 86° 78° (ENE) 657 4.2 -5.9°
Drops below altitude 10° 18:11:04 10° 350° (N) 2,054 6.7 -6.9°
Sets 18:13:17 0° 349° (N) 2,965 7.5 -7.5°
